TimeAKDT,TemperatureF,Dew PointF,Humidity,Sea Level PressureIn,VisibilityMPH,Wind Direction,Wind SpeedMPH,Gust SpeedMPH,PrecipitationIn,Events,Conditions,WindDirDegrees,DateUTC
12:53 AM,57.9,52.0,81,30.01,10.0,Calm,Calm,-,N/A,,Clear,0,2013-08-02 08:53:00
1:53 AM,57.0,53.1,87,30.01,10.0,Calm,Calm,-,N/A,,Clear,0,2013-08-02 09:53:00
2:53 AM,57.0,52.0,83,30.01,10.0,Calm,Calm,-,N/A,,Clear,0,2013-08-02 10:53:00
3:53 AM,55.0,51.1,86,30.03,10.0,NNE,3.5,-,N/A,,Clear,30,2013-08-02 11:53:00
4:53 AM,54.0,51.1,90,30.02,10.0,Calm,Calm,-,N/A,,Clear,0,2013-08-02 12:53:00
5:53 AM,54.0,51.1,90,30.04,10.0,Calm,Calm,-,N/A,,Clear,0,2013-08-02 13:53:00
6:53 AM,53.1,50.0,89,30.04,10.0,Calm,Calm,-,N/A,,Clear,0,2013-08-02 14:53:00
7:53 AM,55.9,53.1,90,30.04,10.0,Calm,Calm,-,N/A,,Clear,0,2013-08-02 15:53:00
8:53 AM,54.0,51.1,90,30.04,10.0,SW,3.5,-,N/A,,Clear,220,2013-08-02 16:53:00
9:53 AM,57.9,53.1,84,30.03,10.0,Calm,Calm,-,N/A,,Clear,0,2013-08-02 17:53:00
10:53 AM,59.0,52.0,78,30.03,10.0,WSW,3.5,-,N/A,,Clear,250,2013-08-02 18:53:00
11:53 AM,59.0,53.1,81,30.02,10.0,WSW,3.5,-,N/A,,Clear,250,2013-08-02 19:53:00
12:53 PM,61.0,53.1,75,30.01,10.0,WSW,13.8,-,N/A,,Clear,240,2013-08-02 20:53:00
1:53 PM,66.0,53.1,63,29.99,10.0,SSW,20.7,26.5,N/A,,Clear,210,2013-08-02 21:53:00
2:53 PM,66.0,53.1,63,29.98,10.0,SW,20.7,28.8,N/A,,Clear,220,2013-08-02 22:53:00
3:53 PM,66.9,55.0,66,29.98,10.0,SSW,20.7,-,N/A,,Clear,210,2013-08-02 23:53:00
4:53 PM,66.9,55.0,66,29.97,10.0,SSW,23.0,29.9,N/A,,Clear,210,2013-08-03 00:53:00
5:53 PM,63.0,53.1,70,29.97,10.0,SW,19.6,-,N/A,,Clear,230,2013-08-03 01:53:00
6:53 PM,64.0,53.1,67,29.98,10.0,SW,12.7,-,N/A,,Clear,230,2013-08-03 02:53:00
7:53 PM,64.9,54.0,68,30.00,10.0,Variable,3.5,-,N/A,,Clear,0,2013-08-03 03:53:00
8:53 PM,64.9,53.1,65,30.01,10.0,Calm,Calm,-,N/A,,Clear,0,2013-08-03 04:53:00
9:53 PM,63.0,54.0,72,30.03,10.0,NE,3.5,-,N/A,,Clear,40,2013-08-03 05:53:00
10:53 PM,60.1,53.1,78,30.04,10.0,Calm,Calm,-,N/A,,Clear,0,2013-08-03 06:53:00
11:53 PM,59.0,53.1,81,30.06,10.0,Calm,Calm,-,N/A,,Clear,0,2013-08-03 07:53:00